Regional Weather Roundup
Issued by NWS New Orleans/Baton Rouge, LA

Home | Current Version | Previous Version | Text Only | Print | Product List | Glossary On
Versions: 1 2 3 4 5 6 7 8 9 10 11 12 13 14 15 16 17 18 19 20 21 22 23 24 25 26 27
000
ASUS44 KLIX 271811
RWRLIX
NEW ORLEANS REGIONAL WEATHER ROUNDUP
NATIONAL WEATHER SERVICE NEW ORLEANS LA
100 PM CDT FRI MAY 27 2016

NOTE: "FAIR" INDICATES FEW OR NO CLOUDS BELOW 12,000 FEET WITH NO
      SIGNIFICANT WEATHER AND/OR OBSTRUCTIONS TO VISIBILITY.
      SKY/WX - SKY CONDITION AND SIGNIFICANT WEATHER.
      TMP - AIR TEMPERATURE.     DP    - DEWPOINT TEMPERATURE.
      RH  - RELATIVE HUMIDITY.   PRES  - PRESSURE.
      HI  - HEAT INDEX.          WCI   - WIND CHILL INDEX.

*  THESE STATIONS ARE NOT NWS OR FAA STATIONS AND ARE NOT UNDER
   NWS QUALITY CONTROL.

LAZ038-040-048-061>063-065>067-069-271900-
SOUTHEAST LOUISIANA

CITY           SKY/WX    TMP DP  RH WIND       PRES   REMARKS
N.O. AUDUBON     N/A     84  67  55 MISG        N/A
6HR MIN TEMP:  78; 6HR MAX TEMP:  86;

N.O. INTL ARPT CLOUDY    85  68  56 SE10      29.95F
6HR MIN TEMP:  78; 6HR MAX TEMP:  85;

N.O. LAKEFRONT CLOUDY    83  65  54 SE18      29.96F
6HR MIN TEMP:  78; 6HR MAX TEMP:  85;

N.O. DOWNTOWN*   N/A     83  66  56 VRB3      29.96F
6HR MIN TEMP:  78; 6HR MAX TEMP:  85;

RESERVE*         N/A     85  69  58 SE12G24   29.95F
6HR MIN TEMP:  78; 6HR MAX TEMP:  86;

SLIDELL        CLOUDY    84  68  58 S15G21    29.97F
6HR MIN TEMP:  77; 6HR MAX TEMP:  84;

BATON ROUGE    CLOUDY    84  67  56 SE15G24   29.90F
6HR MIN TEMP:  75; 6HR MAX TEMP:  87;

BOOTHVILLE     CLOUDY    81  68  64 SE12G20   30.00F
6HR MIN TEMP:  74; 6HR MAX TEMP:  82;

BELLE CHASSE   CLOUDY    82  68  62 SE15      29.96F
6HR MIN TEMP:  77; 6HR MAX TEMP:  84;

BOGALUSA*        N/A     86  60  41 S15G21    30.00F
6HR MIN TEMP:  75; 6HR MAX TEMP:  87;

GALLIANO*      CLOUDY    81  68  65 SE9       29.96F
6HR MIN TEMP:  78; 6HR MAX TEMP:  84;

NEW ROADS*       N/A     83  71  65 SE17G24   29.89F
6HR MIN TEMP:  75; 6HR MAX TEMP:  84;

GONZALES*      MOCLDY    84  67  57 S12G20    29.92F
6HR MIN TEMP:  75; 6HR MAX TEMP:  84;

HAMMOND*       CLOUDY    84  63  48 SE17G23   29.95F
HOUMA*         MOSUNNY   79  72  78 SE12G17   29.95S
PORT FOURCHON* CLEAR     82  66  57 SE15      29.96F

$$

MSZ070-080>082-271900-
SOUTHERN MISSISSIPPI

CITY           SKY/WX    TMP DP  RH WIND       PRES   REMARKS
MCCOMB         PTSUNNY   81  64  56 SE13      29.95F
6HR MIN TEMP:  73; 6HR MAX TEMP:  83;

GULFPORT       CLOUDY    83  66  56 SE16      30.01F
6HR MIN TEMP:  79; 6HR MAX TEMP:  84;

BILOXI         PTSUNNY   82  66  58 S13       30.01F
6HR MIN TEMP:  80; 6HR MAX TEMP:  84;

PASCAGOULA     CLOUDY    85  69  58 SE15      30.03S
6HR MIN TEMP:  73; 6HR MAX TEMP:  85;

STENNIS ARPT*  MOSUNNY   82  59  44 SE14G23   30.00F

$$

COASTAL OBSERVATIONS
LAKE AND NEARSHORE STATIONS

STATION/POSITION TIME  TEMP    WIND        PRES    WAVE
                       AIR SEA DIR/SP/G            HT/PER
                 (UTC) (F)     (DEG/KT/KT) (MB)    (FT/S)
PASCAGOULA       1700   83     130/ 10/ 17 1016.6
WAVELAND YACHT   1700   80 80  160/ 16/ 19 1016.2
GRAND ISLE       1700   80 81  160/  8/ 12 1015.6
SOUTHWEST PASS   1700          140/ 14/ 18   N/A
NEW CANAL        1700   84 81  160/  3/  7 1014.9
SHELL BEACH      1700   81 81  160/ 13/ 20 1016.0

OFFSHORE STATIONS

STATION/POSITION TIME  TEMP    WIND        PRES    WAVE
                       AIR SEA DIR/SP/G            HT/PER
                 (UTC) (F)     (DEG/KT/KT) (MB)    (FT/S)
64 S DAUPHIN ISL 1700   79 79  120/ 14/ 16 1016.0

$$





USA.gov is the U.S. government's official web portal to all federal, state and local government web resources and services.